Location: Newark
(34.6000°N, 98.3833°W)
Time: 00:38:42
(UTC+00:00)

N. Korean satellite - Pass Details

Date: 25 October 2019
Orbit: 456 x 506 km, 97.2° (Epoch: 10 November)

Event Time Altitude Azimuth Distance (km) Brightness Sun altitude
Rises 12:07:27 0° 17° (NNE) 2,580 10.4 -8.9°
Reaches altitude 10° 12:09:34 10° 22° (NNE) 1,700 9.5 -8.5°
Maximum altitude 12:13:09 51° 99° (E) 632 7.7 -7.8°
Drops below altitude 10° 12:16:45 10° 177° (S) 1,706 9.5 -7.0°
Sets 12:18:52 0° 182° (S) 2,589 10.4 -6.6°
